STARLINK-5212 (54075 NORAD) Tracking and Keplerian Element Data

This shows tracking and keplerian element data for the satellite.

Feedback or suggestion? Click here.




ElementValue
Catalog54075
NameSTARLINK-5212
Epoch Orbit550
Epoch Day325.33334491
Epoch Year2022
RAAN351.0493
Inclination53.2171
Eccentricity0.0001276
Argument of Perigee74.644
Mean Anonmoly191.4564
Mean Motion15.655209
Decay Rate-0.01358028
L11 54075U 22136AA 22325.33334491 -.01358028 00000+0 -14981-1 0 9991
L22 54075 53.2171 351.0493 0001276 74.6440 191.4564 15.65520900 5501



Live tracking and technical data element details for STARLINK-5212 (NORAD 54075). STARLINK-5212 can be tracked NOW for your location showing map with azimuth and elevation plus other details from your city location.







IsCatalogInMostPopularTable: catalog: 54075, numindb: 1
Update: records affected: 1



GetName: 54075 STARLINK-5212

Hit Count: updated at: Mon, 28 Nov 2022 22:35:17 GMT